Location: Newark
(7.0858°N, 171.3717°E)
Time: 02:45:40
(UTC+00:00)

A-11 Canister half - Pass Details

Date: 09 December 2020
Orbit: 1517 x 1683 km, 47.2° (Epoch: 16 January)

Event Time Altitude Azimuth Distance (km) Brightness Sun altitude
Rises 16:12:14 0° 178° (S) 4,654 11.8 -33.8°
Reaches altitude 10° 16:18:43 10° 146° (SE) 3,676 11.6 -32.3°
Maximum altitude 16:21:03 11° 130° (SE) 3,594 11.7 -31.7°
Drops below altitude 10° 16:23:23 10° 115° (ESE) 3,688 11.9 -31.2°
Sets 16:29:51 0° 83° (E) 4,699 12.4 -29.7°
